Weather Roundup
Issued by NWS Springfield, MO

Home | Current Version | Previous Version | Text Only | Print | Product List | Glossary On
Versions: 1 2 3 4 5 6 7 8 9 10 11 12 13 14 15 16 17 18 19 20 21 22 23 24 25 26 27 28 29 30 31 32 33 34 35 36 37 38 39 40 41 42 43 44 45 46 47 48 49 50
000
NZUS99 KSGF 021159
HRRSGF

HOURLY WEATHER
NATIONAL WEATHER SERVICE SPRINGFIELD MO
700 AM CDT THU JUL 02 2015

......SGF CWA......

CITY           SKY/WX    TMP DP  RH WIND       PRES   REMARKS
SPRINGFIELD    MOSUNNY   70  67  90 SE10      29.85F
6HR MIN TEMP:  68; 6HR MAX TEMP:  79; 6HR PCP:  1.64;

JOPLIN         CLEAR     76  71  85 SE5       29.83S
6HR MIN TEMP:  73; 6HR MAX TEMP:  82;

WEST PLAINS    CLOUDY    70  66  87 W12       29.90R
6HR MIN TEMP:  69; 6HR MAX TEMP:  75; 6HR PCP:  1.28;

ROLLA          SUNNY     69  68  96 E3        29.85S
6HR MIN TEMP:  66; 6HR MAX TEMP:  70;

OSAGE BEACH    SUNNY     68  66  94 NE3       29.86R
BRANSON        CLOUDY    68  66  94 S9        29.90S

......SURROUNDING SGF CWA......

CITY           SKY/WX    TMP DP  RH WIND       PRES   REMARKS
CHANUTE        MOCLDY    72  69  90 NE6       29.82S
PARSONS        MOCLDY    73  71  93 NW5       29.82R
COFFEYVILLE    MOCLDY    77  70  79 W6        29.81R
EMPORIA        MOCLDY    71  68  90 NE6       29.88R
SILOAM SPRINGS PTCLDY    75  66  73 SW12        N/A
HARRISON AR    CLOUDY    68  68 100 S14       29.91F
NEAR YELLVILLE CLOUDY    70  66  88 S6        29.90R THUNDER

......KANSAS AND MISSOURI......

CITY           SKY/WX    TMP DP  RH WIND       PRES   REMARKS
KANSAS CTY INT CLOUDY    71  68  90 NE10      29.88S FOG
DOWNTOWN KC    CLOUDY    73  69  87 NE9       29.87R FOG
COLUMBIA       CLOUDY    71  70  96 NE8       29.86S
SEDALIA        CLOUDY    72  68  87 NE10      29.88R
ST JOSEPH      CLOUDY    71  67  87 E8        29.90S
ST LOUIS       LGT RAIN  69  65  86 NE8       29.87R FOG
SPIRIT OF STL  CLOUDY    71  69  93 NE9       29.85R
KIRKSVILLE     LGT RAIN  65  62  90 E8        29.94R FOG
WICHITA        CLOUDY    76  72  87 N6        29.86S
TOPEKA         CLOUDY    73  70  90 N7        29.88R
OLATHE         CLOUDY    71  68  90 NE8       29.87R

......TENNESSEE......

CITY           SKY/WX    TMP DP  RH WIND       PRES   REMARKS
MEMPHIS        CLOUDY    78  71  79 SW9       29.91F
NASHVILLE      LGT RAIN  70  70 100 CALM      29.94R

......ARKANSAS.......

CITY           SKY/WX    TMP DP  RH WIND       PRES   REMARKS
FAYETTEVILLE   PTCLDY    76  69  79 SW16G24   29.88R
FT SMITH       MOCLDY    79  66  64 W9        29.89R
LITTLE ROCK    CLOUDY    77  67  71 SW8       29.91R

......OKLAHOMA.......

CITY           SKY/WX    TMP DP  RH WIND       PRES   REMARKS
TULSA          MOCLDY    80  70  71 SW13      29.83S
PONCA CITY     MOCLDY    74  67  78 SW3       29.84R
MCALESTER      CLOUDY    77  69  76 SW13      29.91R THUNDER
OKLAHOMA CITY  MOCLDY    76  69  79 SW14      29.90R

......IOWA............

CITY           SKY/WX    TMP DP  RH WIND       PRES   REMARKS
DES MOINES     PTSUNNY   59  53  80 E9        29.96S
QUAD CITIES    SUNNY     57  50  77 NE9       29.98S

......ILLINOIS........

CITY           SKY/WX    TMP DP  RH WIND       PRES   REMARKS
QUINCY         CLOUDY    63  55  75 E13       29.92R
CHICAGO        CLOUDY    55  53  93 N9        30.00R FOG



USA.gov is the U.S. government's official web portal to all federal, state and local government web resources and services.